| time (UTC) | temp F | wind direction | speed knots | gust knots | rain 1hr in | rain 24hr in | rain mn in | humidity % | barometer mb |
| 20260903013606 | 72 | 286 | 2.6 | 6.1 | 0.00 | 0.00 | 0.00 | 55 | 1006.1 |
| 20260903011605 | 73 | 241 | 5.2 | 8.7 | 0.00 | 0.00 | 0.00 | 51 | 1006.1 |
| 20260903011105 | 74 | 242 | 4.3 | 7.8 | 0.00 | 0.00 | 0.00 | 50 | 1005.9 |
| 20260903010605 | 74 | 293 | 2.6 | 7.0 | 0.00 | 0.00 | 0.00 | 49 | 1006.1 |
| 20260903010105 | 75 | 254 | 5.2 | 10.4 | 0.00 | 0.00 | 0.00 | 48 | 1005.9 |
| 20260903005605 | 75 | 267 | 4.3 | 10.4 | 0.00 | 0.00 | 0.00 | 47 | 1006.1 |
| 20260903005106 | 76 | 244 | 3.5 | 7.8 | 0.00 | 0.00 | 0.00 | 46 | 1006.1 |
| 20260903004105 | 77 | 232 | 2.6 | 5.2 | 0.00 | 0.00 | 0.00 | 44 | 1006.1 |
| 20260903003605 | 76 | 148 | 0.9 | 7.0 | 0.00 | 0.00 | 0.00 | 44 | 1006.1 |
| 20260903003106 | 76 | 196 | 1.7 | 5.2 | 0.00 | 0.00 | 0.00 | 44 | 1006.1 |
| 20260903002606 | 76 | 244 | 2.6 | 5.2 | 0.00 | 0.00 | 0.00 | 43 | 1006.1 |
| 20260903001605 | 76 | 235 | 1.7 | 5.2 | 0.00 | 0.00 | 0.00 | 41 | 1006.1 |
| 20260903001105 | 75 | 228 | 4.3 | 7.8 | 0.00 | 0.00 | 0.00 | 42 | 1006.3 |
| 20260903000605 | 75 | 218 | 2.6 | 6.1 | 0.00 | 0.00 | 0.00 | 42 | 1006.4 |
| 20260903000105 | 74 | 214 | 2.6 | 6.1 | 0.00 | 0.00 | 0.00 | 42 | 1006.4 |
| 20260902235607 | 74 | 234 | 3.5 | 8.7 | 0.00 | 0.00 | 0.00 | 44 | 1006.4 |
| 20260902235105 | 74 | 239 | 5.2 | 11.3 | 0.00 | 0.00 | 0.00 | 45 | 1006.4 |
| 20260902234605 | 74 | 235 | 4.3 | 8.7 | 0.00 | 0.00 | 0.00 | 46 | 1006.4 |
| 20260902234105 | 74 | 258 | 4.3 | 10.4 | 0.00 | 0.00 | 0.00 | 47 | 1006.4 |
| 20260902233605 | 74 | 250 | 5.2 | 11.3 | 0.00 | 0.00 | 0.00 | 48 | 1006.4 |
| 20260902233105 | 74 | 246 | 4.3 | 8.7 | 0.00 | 0.00 | 0.00 | 49 | 1006.4 |
| 20260902232605 | 74 | 255 | 6.1 | 10.4 | 0.00 | 0.00 | 0.00 | 50 | 1006.4 |
| 20260902232105 | 74 | 235 | 2.6 | 6.1 | 0.00 | 0.00 | 0.00 | 51 | 1006.4 |
| 20260902231606 | 74 | 245 | 3.5 | 7.0 | 0.00 | 0.00 | 0.00 | 52 | 1006.6 |
| 20260902231105 | 74 | 247 | 5.2 | 10.4 | 0.00 | 0.00 | 0.00 | 52 | 1006.4 |
| 20260902230605 | 74 | 240 | 5.2 | 10.4 | 0.00 | 0.00 | 0.00 | 53 | 1006.4 |
| 20260902230107 | 75 | 225 | 4.3 | 8.7 | 0.00 | 0.00 | 0.00 | 53 | 1006.6 |
| 20260902225605 | 75 | 239 | 5.2 | 12.2 | 0.00 | 0.00 | 0.00 | 54 | 1006.6 |
| 20260902225105 | 75 | 264 | 2.6 | 8.7 | 0.00 | 0.00 | 0.00 | 55 | 1006.6 |
| 20260902224605 | 74 | 208 | 4.3 | 7.0 | 0.00 | 0.00 | 0.00 | 56 | 1006.8 |
| 20260902224105 | 74 | 230 | 4.3 | 10.4 | 0.00 | 0.00 | 0.00 | 56 | 1006.8 |
| 20260902223605 | 74 | 211 | 3.5 | 7.8 | 0.00 | 0.00 | 0.00 | 56 | 1006.8 |
| 20260902223105 | 74 | 239 | 6.1 | 10.4 | 0.00 | 0.00 | 0.00 | 56 | 1006.8 |
| 20260902222104 | 75 | 226 | 5.2 | 11.3 | 0.00 | 0.00 | 0.00 | 56 | 1006.8 |
| 20260902221106 | 74 | 229 | 4.3 | 10.4 | 0.00 | 0.00 | 0.00 | 57 | 1006.8 |
| 20260902220606 | 74 | 247 | 3.5 | 7.8 | 0.00 | 0.00 | 0.00 | 57 | 1006.8 |
| 20260902220105 | 74 | 227 | 2.6 | 7.8 | 0.00 | 0.00 | 0.00 | 57 | 1006.9 |
| 20260902215606 | 74 | 236 | 4.3 | 10.4 | 0.00 | 0.00 | 0.00 | 57 | 1007.1 |
| 20260902215105 | 75 | 241 | 2.6 | 7.0 | 0.00 | 0.00 | 0.00 | 56 | 1007.1 |
| 20260902214605 | 75 | 231 | 3.5 | 7.0 | 0.00 | 0.00 | 0.00 | 56 | 1007.1 |
| 20260902214105 | 75 | 157 | 2.6 | 8.7 | 0.00 | 0.00 | 0.00 | 57 | 1007.1 |
| 20260902213105 | 74 | 279 | 2.6 | 7.0 | 0.00 | 0.00 | 0.00 | 57 | 1007.1 |
| 20260902212604 | 74 | 232 | 3.5 | 7.8 | 0.00 | 0.00 | 0.00 | 57 | 1007.1 |
| 20260902212105 | 75 | 200 | 4.3 | 7.8 | 0.00 | 0.00 | 0.00 | 57 | 1007.1 |
| 20260902211605 | 75 | 238 | 2.6 | 7.0 | 0.00 | 0.00 | 0.00 | 56 | 1007.1 |
| 20260902211105 | 75 | 196 | 2.6 | 6.1 | 0.00 | 0.00 | 0.00 | 57 | 1007.1 |
| 20260902210605 | 74 | 220 | 1.7 | 7.0 | 0.00 | 0.00 | 0.00 | 59 | 1007.1 |
| 20260902210106 | 73 | 176 | 1.7 | 6.1 | 0.00 | 0.00 | 0.00 | 59 | 1007.5 |
| 20260902205106 | 74 | 225 | 4.3 | 7.0 | 0.00 | 0.00 | 0.00 | 59 | 1007.1 |
| 20260902204606 | 73 | 263 | 2.6 | 6.1 | 0.00 | 0.00 | 0.00 | 60 | 1007.1 |
| 20260902204105 | 73 | 223 | 2.6 | 7.0 | 0.00 | 0.00 | 0.00 | 60 | 1007.3 |
| 20260902203606 | 73 | 251 | 4.3 | 7.8 | 0.00 | 0.00 | 0.00 | 61 | 1007.5 |
| 20260902203106 | 73 | 191 | 2.6 | 6.1 | 0.00 | 0.00 | 0.00 | 62 | 1007.6 |
| 20260902202605 | 73 | 240 | 2.6 | 7.0 | 0.00 | 0.00 | 0.00 | 62 | 1007.5 |
| 20260902202105 | 73 | 229 | 3.5 | 7.0 | 0.00 | 0.00 | 0.00 | 63 | 1007.5 |
| 20260902201604 | 72 | 222 | 1.7 | 6.1 | 0.00 | 0.00 | 0.00 | 64 | 1007.6 |
| 20260902201105 | 71 | 221 | 2.6 | 7.8 | 0.00 | 0.00 | 0.00 | 65 | 1007.8 |
| 20260902200606 | 71 | 236 | 4.3 | 10.4 | 0.00 | 0.00 | 0.00 | 66 | 1007.8 |
| 20260902200105 | 71 | 254 | 3.5 | 7.8 | 0.00 | 0.00 | 0.00 | 66 | 1007.8 |
| 20260902195605 | 71 | 231 | 3.5 | 7.8 | 0.00 | 0.00 | 0.00 | 67 | 1007.8 |
| 20260902195105 | 71 | 238 | 6.1 | 8.7 | 0.00 | 0.00 | 0.00 | 69 | 1008.0 |
| 20260902194605 | 70 | 278 | 3.5 | 7.0 | 0.00 | 0.00 | 0.00 | 70 | 1008.1 |
| 20260902194104 | 69 | 274 | 4.3 | 7.8 | 0.00 | 0.00 | 0.00 | 70 | 1008.1 |
| 20260902193606 | 70 | 248 | 4.3 | 8.7 | 0.00 | 0.00 | 0.00 | 69 | 1008.1 |
| 20260902192606 | 70 | 257 | 4.3 | 11.3 | 0.00 | 0.00 | 0.00 | 68 | 1008.1 |
| 20260902192105 | 70 | 238 | 4.3 | 10.4 | 0.00 | 0.00 | 0.00 | 68 | 1008.1 |
| 20260902191605 | 70 | 249 | 2.6 | 7.0 | 0.00 | 0.00 | 0.00 | 68 | 1008.1 |
| 20260902190606 | 71 | 288 | 3.5 | 6.1 | 0.00 | 0.00 | 0.00 | 65 | 1008.1 |
| 20260902190104 | 72 | 254 | 2.6 | 5.2 | 0.00 | 0.00 | 0.00 | 63 | 1008.3 |
| 20260902185605 | 72 | 266 | 1.7 | 6.1 | 0.00 | 0.00 | 0.00 | 61 | 1008.3 |
| 20260902185104 | 72 | 240 | 1.7 | 5.2 | 0.00 | 0.00 | 0.00 | 61 | 1008.1 |
| 20260902183605 | 72 | 201 | 0.0 | 4.3 | 0.00 | 0.00 | 0.00 | 61 | 1008.1 |
| 20260902183104 | 71 | 157 | 0.9 | 1.7 | 0.00 | 0.00 | 0.00 | 62 | 1008.1 |
| 20260902182604 | 71 | 225 | 2.6 | 8.7 | 0.00 | 0.00 | 0.00 | 61 | 1008.1 |
| 20260902182105 | 72 | 226 | 2.6 | 4.3 | 0.00 | 0.00 | 0.00 | 61 | 1008.1 |
| 20260902181605 | 72 | 135 | 2.6 | 7.0 | 0.00 | 0.00 | 0.00 | 61 | 1008.1 |
| 20260902180605 | 72 | 130 | 1.7 | 6.1 | 0.00 | 0.00 | 0.00 | 62 | 1008.1 |
| 20260902180105 | 71 | 193 | 0.9 | 4.3 | 0.00 | 0.00 | 0.00 | 62 | 1007.8 |
| 20260902175605 | 71 | 136 | 0.9 | 5.2 | 0.00 | 0.00 | 0.00 | 62 | 1007.9 |
| 20260902175104 | 71 | 159 | 1.7 | 6.1 | 0.00 | 0.00 | 0.00 | 62 | 1007.8 |
| 20260902174604 | 71 | 203 | 0.9 | 6.1 | 0.00 | 0.00 | 0.00 | 62 | 1007.8 |
| 20260902174105 | 71 | 130 | 1.7 | 4.3 | 0.00 | 0.00 | 0.00 | 62 | 1007.8 |
| 20260902173605 | 71 | 221 | 2.6 | 6.1 | 0.00 | 0.00 | 0.00 | 63 | 1007.8 |
| 20260902173106 | 71 | 203 | 0.9 | 6.1 | 0.00 | 0.00 | 0.00 | 63 | 1007.8 |
| 20260902172605 | 70 | 167 | 1.7 | 4.3 | 0.00 | 0.00 | 0.00 | 63 | 1007.8 |
| 20260902172106 | 70 | 143 | 1.7 | 4.3 | 0.00 | 0.00 | 0.00 | 63 | 1007.8 |
| 20260902171604 | 70 | 136 | 0.0 | 7.0 | 0.00 | 0.00 | 0.00 | 64 | 1007.8 |
| 20260902171105 | 70 | 131 | 2.6 | 5.2 | 0.00 | 0.00 | 0.00 | 64 | 1007.8 |
| 20260902170604 | 69 | 143 | 1.7 | 4.3 | 0.00 | 0.00 | 0.00 | 64 | 1007.6 |
| 20260902170106 | 69 | 146 | 2.6 | 5.2 | 0.00 | 0.00 | 0.00 | 64 | 1007.8 |
| 20260902165105 | 69 | 145 | 1.7 | 4.3 | 0.00 | 0.00 | 0.00 | 64 | 1007.8 |
| 20260902164605 | 68 | 180 | 0.9 | 2.6 | 0.00 | 0.00 | 0.00 | 65 | 1007.8 |
| 20260902164105 | 68 | 214 | 1.7 | 4.3 | 0.00 | 0.00 | 0.00 | 65 | 1007.8 |
| 20260902163604 | 68 | 179 | 0.9 | 2.6 | 0.00 | 0.00 | 0.00 | 65 | 1007.8 |
| 20260902163104 | 68 | 181 | 2.6 | 6.1 | 0.00 | 0.00 | 0.00 | 65 | 1007.8 |
| 20260902162604 | 68 | 135 | 1.7 | 2.6 | 0.00 | 0.00 | 0.00 | 64 | 1007.8 |
| 20260902161606 | 68 | 123 | 0.9 | 1.7 | 0.00 | 0.00 | 0.00 | 64 | 1007.8 |
| 20260902161104 | 68 | 130 | 0.9 | 6.1 | 0.00 | 0.00 | 0.00 | 64 | 1007.8 |
| 20260902160105 | 68 | 78 | 1.7 | 2.6 | 0.00 | 0.00 | 0.00 | 66 | 1007.8 |
| 20260902155605 | 67 | 74 | 1.7 | 2.6 | 0.00 | 0.00 | 0.00 | 67 | 1007.8 |
| 20260902154604 | 65 | 147 | 1.7 | 4.3 | 0.00 | 0.00 | 0.00 | 71 | 1007.8 |
| 20260902154105 | 64 | 90 | 0.0 | 1.7 | 0.00 | 0.00 | 0.00 | 74 | 1007.8 |
| 20260902153604 | 63 | 135 | 0.0 | 0.9 | 0.00 | 0.00 | 0.00 | 75 | 1007.8 |
| 20260902153105 | 62 | 85 | 0.0 | 0.9 | 0.00 | 0.00 | 0.00 | 76 | 1007.8 |
| 20260902152605 | 62 | 90 | 0.0 | 0.0 | 0.00 | 0.00 | 0.00 | 76 | 1008.0 |
| 20260902152104 | 62 | 90 | 0.0 | 0.9 | 0.00 | 0.00 | 0.00 | 77 | 1007.9 |
| 20260902151604 | 62 | 90 | 0.9 | 0.9 | 0.00 | 0.00 | 0.00 | 78 | 1008.1 |
| 20260902151104 | 62 | 90 | 0.0 | 0.0 | 0.00 | 0.00 | 0.00 | 78 | 1007.8 |
| 20260902150605 | 61 | 90 | 0.0 | 0.0 | 0.00 | 0.00 | 0.00 | 79 | 1007.8 |
| 20260902150104 | 61 | 67 | 0.0 | 0.0 | 0.00 | 0.00 | 0.00 | 79 | 1007.8 |
| 20260902145604 | 61 | 95 | 0.0 | 1.7 | 0.00 | 0.00 | 0.00 | 80 | 1007.6 |
| 20260902145104 | 61 | 135 | 0.0 | 0.0 | 0.00 | 0.00 | 0.00 | 80 | 1007.5 |
| 20260902144605 | 61 | 135 | 0.0 | 0.0 | 0.00 | 0.00 | 0.00 | 80 | 1007.3 |
| 20260902144105 | 61 | 135 | 0.0 | 0.0 | 0.00 | 0.00 | 0.00 | 80 | 1007.1 |
| 20260902143605 | 60 | 135 | 0.0 | 0.9 | 0.00 | 0.00 | 0.00 | 80 | 1007.1 |
| 20260902143104 | 60 | 135 | 0.9 | 1.7 | 0.00 | 0.00 | 0.00 | 81 | 1007.1 |
| 20260902142605 | 60 | 135 | 0.0 | 0.9 | 0.00 | 0.00 | 0.00 | 81 | 1007.1 |
| 20260902142106 | 60 | 135 | 0.0 | 0.9 | 0.00 | 0.00 | 0.00 | 81 | 1006.8 |
| 20260902141604 | 60 | 135 | 0.0 | 0.9 | 0.00 | 0.00 | 0.00 | 81 | 1007.0 |
| 20260902141104 | 60 | 135 | 0.9 | 2.6 | 0.00 | 0.00 | 0.00 | 81 | 1006.9 |
| 20260902140105 | 61 | 157 | 0.9 | 1.7 | 0.00 | 0.00 | 0.00 | 80 | 1007.1 |
| 20260902135604 | 61 | 157 | 0.0 | 1.7 | 0.00 | 0.00 | 0.00 | 80 | 1006.9 |
| 20260902135104 | 61 | 157 | 0.0 | 1.7 | 0.00 | 0.00 | 0.00 | 80 | 1007.1 |
| 20260902134604 | 61 | 166 | 1.7 | 4.3 | 0.00 | 0.00 | 0.00 | 81 | 1006.8 |
| 20260902134104 | 61 | 142 | 1.7 | 2.6 | 0.00 | 0.00 | 0.00 | 81 | 1006.8 |
| 20260902133605 | 61 | 151 | 1.7 | 4.3 | 0.00 | 0.00 | 0.00 | 82 | 1006.8 |
| 20260902133105 | 60 | 135 | 0.9 | 2.6 | 0.00 | 0.00 | 0.00 | 82 | 1006.8 |
| 20260902132604 | 60 | 157 | 1.7 | 4.3 | 0.00 | 0.00 | 0.00 | 83 | 1006.8 |
| 20260902132104 | 60 | 112 | 0.9 | 4.3 | 0.00 | 0.00 | 0.00 | 84 | 1006.8 |
| 20260902131605 | 60 | 135 | 0.9 | 2.6 | 0.00 | 0.00 | 0.00 | 85 | 1006.8 |
| 20260902131105 | 60 | 113 | 0.0 | 0.9 | 0.00 | 0.00 | 0.00 | 85 | 1006.8 |
| 20260902130604 | 60 | 90 | 0.0 | 1.7 | 0.00 | 0.00 | 0.00 | 86 | 1006.8 |
| 20260902130104 | 60 | 135 | 0.9 | 1.7 | 0.00 | 0.00 | 0.00 | 86 | 1006.8 |
| 20260902125605 | 59 | 90 | 0.0 | 0.9 | 0.00 | 0.00 | 0.00 | 86 | 1006.8 |
| 20260902125104 | 59 | 67 | 0.0 | 0.9 | 0.00 | 0.00 | 0.00 | 86 | 1006.8 |
| 20260902124604 | 59 | 112 | 0.0 | 0.0 | 0.00 | 0.00 | 0.00 | 86 | 1006.8 |
| 20260902124105 | 59 | 112 | 0.0 | 0.9 | 0.00 | 0.00 | 0.00 | 86 | 1006.8 |
| 20260902123604 | 59 | 112 | 0.0 | 0.0 | 0.00 | 0.00 | 0.00 | 86 | 1006.8 |
| 20260902123104 | 59 | 112 | 0.0 | 0.9 | 0.00 | 0.00 | 0.00 | 86 | 1006.8 |
| 20260902122605 | 59 | 45 | 0.0 | 0.9 | 0.00 | 0.00 | 0.00 | 86 | 1006.8 |
| 20260902122105 | 59 | 112 | 0.0 | 0.9 | 0.00 | 0.00 | 0.00 | 86 | 1006.8 |
| 20260902121104 | 59 | 112 | 0.0 | 0.9 | 0.00 | 0.00 | 0.00 | 86 | 1006.8 |
| 20260902120606 | 59 | 112 | 0.0 | 0.9 | 0.00 | 0.00 | 0.00 | 86 | 1006.8 |
| 20260902120104 | 59 | 112 | 0.0 | 0.0 | 0.00 | 0.00 | 0.00 | 86 | 1006.8 |
| 20260902115103 | 59 | 157 | 0.0 | 0.0 | 0.00 | 0.00 | 0.00 | 85 | 1006.8 |
| 20260902114604 | 59 | 180 | 0.0 | 0.0 | 0.00 | 0.00 | 0.00 | 85 | 1006.8 |
| 20260902114104 | 59 | 180 | 0.0 | 0.0 | 0.00 | 0.00 | 0.00 | 85 | 1006.8 |
| 20260902113604 | 59 | 180 | 0.0 | 0.0 | 0.00 | 0.00 | 0.00 | 85 | 1006.8 |
| 20260902113104 | 60 | 180 | 0.0 | 0.9 | 0.00 | 0.00 | 0.00 | 85 | 1006.8 |
| 20260902112604 | 60 | 180 | 0.9 | 1.7 | 0.00 | 0.00 | 0.00 | 84 | 1006.8 |
| 20260902112104 | 60 | 157 | 0.0 | 1.7 | 0.00 | 0.00 | 0.00 | 84 | 1006.8 |
| 20260902111604 | 60 | 135 | 0.0 | 0.0 | 0.00 | 0.00 | 0.00 | 84 | 1006.8 |
| 20260902111105 | 61 | 135 | 0.9 | 1.7 | 0.00 | 0.00 | 0.00 | 84 | 1006.8 |
| 20260902110604 | 61 | 90 | 0.0 | 0.0 | 0.00 | 0.00 | 0.00 | 84 | 1006.8 |
| 20260902110104 | 61 | 90 | 0.0 | 0.0 | 0.00 | 0.00 | 0.00 | 84 | 1006.9 |
| 20260902105604 | 61 | 112 | 0.9 | 1.7 | 0.00 | 0.00 | 0.00 | 84 | 1007.1 |
| 20260902105105 | 61 | 67 | 0.0 | 1.7 | 0.00 | 0.00 | 0.00 | 84 | 1007.1 |
| 20260902103605 | 61 | 67 | 0.0 | 1.7 | 0.00 | 0.00 | 0.00 | 85 | 1007.3 |
| 20260902103105 | 61 | 69 | 0.0 | 1.7 | 0.00 | 0.00 | 0.00 | 85 | 1007.1 |
| 20260902102604 | 61 | 69 | 0.0 | 1.7 | 0.00 | 0.00 | 0.00 | 85 | 1007.1 |
| 20260902102104 | 60 | 67 | 0.9 | 1.7 | 0.00 | 0.00 | 0.00 | 86 | 1007.1 |
| 20260902101604 | 60 | 67 | 0.9 | 1.7 | 0.00 | 0.00 | 0.00 | 86 | 1006.9 |
| 20260902101107 | 60 | 83 | 0.0 | 1.7 | 0.00 | 0.00 | 0.00 | 86 | 1007.1 |
| 20260902100604 | 60 | 86 | 0.0 | 1.7 | 0.00 | 0.00 | 0.00 | 86 | 1007.1 |
| 20260902100104 | 60 | 90 | 0.9 | 4.3 | 0.00 | 0.00 | 0.00 | 86 | 1007.1 |
| 20260902094605 | 59 | 90 | 0.0 | 0.0 | 0.00 | 0.00 | 0.00 | 86 | 1007.3 |
| 20260902094104 | 59 | 79 | 0.0 | 0.9 | 0.00 | 0.00 | 0.00 | 86 | 1007.1 |
| 20260902093603 | 59 | 130 | 0.0 | 0.9 | 0.00 | 0.00 | 0.00 | 86 | 1007.1 |
| 20260902093104 | 59 | 67 | 0.0 | 0.9 | 0.00 | 0.00 | 0.00 | 86 | 1007.1 |
| 20260902092604 | 59 | 135 | 0.0 | 0.9 | 0.00 | 0.00 | 0.00 | 86 | 1007.1 |
| 20260902092104 | 59 | 135 | 0.0 | 1.7 | 0.00 | 0.00 | 0.00 | 86 | 1007.1 |
| 20260902091603 | 59 | 135 | 0.0 | 0.0 | 0.00 | 0.00 | 0.00 | 86 | 1006.9 |
| 20260902091104 | 59 | 112 | 0.0 | 0.0 | 0.00 | 0.00 | 0.00 | 86 | 1007.1 |
| 20260902090604 | 59 | 112 | 0.0 | 0.9 | 0.00 | 0.00 | 0.00 | 86 | 1007.1 |
| 20260902090104 | 59 | 112 | 0.0 | 1.7 | 0.00 | 0.00 | 0.00 | 85 | 1007.1 |
| 20260902085604 | 59 | 112 | 0.0 | 0.0 | 0.00 | 0.00 | 0.00 | 85 | 1007.1 |
| 20260902085103 | 60 | 112 | 0.0 | 0.9 | 0.00 | 0.00 | 0.00 | 85 | 1007.1 |
| 20260902084104 | 60 | 112 | 0.0 | 1.7 | 0.00 | 0.00 | 0.00 | 85 | 1007.1 |
| 20260902083603 | 60 | 135 | 0.9 | 1.7 | 0.00 | 0.00 | 0.00 | 85 | 1007.3 |
| 20260902083104 | 60 | 67 | 0.0 | 0.9 | 0.00 | 0.00 | 0.00 | 85 | 1007.1 |
| 20260902082604 | 60 | 135 | 0.0 | 1.7 | 0.00 | 0.00 | 0.00 | 85 | 1007.1 |
| 20260902082104 | 60 | 135 | 0.9 | 1.7 | 0.00 | 0.00 | 0.00 | 85 | 1007.1 |
| 20260902081603 | 60 | 135 | 0.9 | 1.7 | 0.00 | 0.00 | 0.00 | 85 | 1007.1 |
| 20260902081105 | 60 | 112 | 0.9 | 1.7 | 0.00 | 0.00 | 0.00 | 85 | 1007.1 |
| 20260902080604 | 60 | 135 | 0.9 | 2.6 | 0.00 | 0.00 | 0.00 | 85 | 1007.1 |
| 20260902080104 | 60 | 112 | 0.0 | 0.0 | 0.00 | 0.00 | 0.00 | 84 | 1007.1 |
| 20260902075605 | 60 | 112 | 0.0 | 1.7 | 0.00 | 0.00 | 0.00 | 84 | 1007.1 |
| 20260902075104 | 60 | 135 | 0.0 | 0.9 | 0.00 | 0.00 | 0.00 | 84 | 1007.1 |
| 20260902074604 | 60 | 135 | 0.0 | 0.9 | 0.00 | 0.00 | 0.00 | 84 | 1007.1 |
| 20260902073103 | 60 | 180 | 0.0 | 1.7 | 0.00 | 0.00 | 0.00 | 83 | 1007.1 |
| 20260902072604 | 60 | 135 | 0.0 | 0.0 | 0.00 | 0.00 | 0.00 | 83 | 1006.8 |
| 20260902072104 | 60 | 225 | 0.0 | 0.0 | 0.00 | 0.00 | 0.00 | 82 | 1007.1 |
| 20260902071603 | 60 | 225 | 0.0 | 0.0 | 0.00 | 0.00 | 0.00 | 81 | 1007.1 |
| 20260902071105 | 60 | 225 | 0.0 | 0.0 | 0.00 | 0.00 | 0.00 | 81 | 1006.9 |
| 20260902070605 | 60 | 225 | 0.0 | 0.0 | 0.00 | 0.00 | 0.00 | 80 | 1006.9 |
| 20260902070104 | 60 | 225 | 0.0 | 0.0 | 0.00 | 0.00 | 0.00 | 80 | 1007.1 |
| 20260902065604 | 61 | 225 | 0.0 | 0.0 | 0.00 | 0.00 | 0.00 | 79 | 1007.1 |
| 20260902065104 | 61 | 225 | 0.0 | 0.0 | 0.00 | 0.00 | 0.00 | 79 | 1007.1 |
| 20260902064604 | 61 | 225 | 0.0 | 0.0 | 0.00 | 0.00 | 0.00 | 79 | 1006.9 |
| 20260902064106 | 61 | 225 | 0.0 | 0.0 | 0.00 | 0.00 | 0.00 | 80 | 1006.8 |
| 20260902063605 | 62 | 225 | 0.9 | 2.6 | 0.00 | 0.00 | 0.00 | 80 | 1006.8 |
| 20260902063105 | 62 | 141 | 0.0 | 1.7 | 0.00 | 0.00 | 0.00 | 80 | 1006.8 |
| 20260902062606 | 62 | 129 | 0.0 | 0.9 | 0.00 | 0.00 | 0.00 | 80 | 1006.8 |
| 20260902061606 | 62 | 157 | 0.0 | 0.9 | 0.00 | 0.00 | 0.00 | 80 | 1006.8 |
| 20260902061106 | 61 | 157 | 0.9 | 1.7 | 0.00 | 0.00 | 0.00 | 80 | 1006.8 |
| 20260902060605 | 61 | 135 | 0.9 | 2.6 | 0.00 | 0.00 | 0.00 | 80 | 1006.9 |
| 20260902055605 | 61 | 150 | 0.0 | 0.0 | 0.00 | 0.00 | 0.00 | 81 | 1007.1 |
| 20260902055105 | 61 | 135 | 0.0 | 0.0 | 0.00 | 0.00 | 0.00 | 82 | 1007.0 |
| 20260902054606 | 61 | 135 | 0.0 | 0.9 | 0.00 | 0.00 | 0.00 | 82 | 1007.1 |
| 20260902054106 | 61 | 135 | 0.0 | 0.0 | 0.00 | 0.00 | 0.00 | 82 | 1007.1 |
| 20260902053608 | 61 | 135 | 0.9 | 1.7 | 0.00 | 0.00 | 0.00 | 82 | 1007.1 |
| 20260902053106 | 61 | 191 | 0.9 | 1.7 | 0.00 | 0.00 | 0.00 | 82 | 1007.1 |
| 20260902052605 | 61 | 98 | 0.9 | 2.6 | 0.00 | 0.00 | 0.00 | 83 | 1007.1 |
| 20260902051606 | 60 | 157 | 0.9 | 1.7 | 0.00 | 0.00 | 0.00 | 82 | 1007.2 |
| 20260902051106 | 60 | 90 | 0.0 | 0.0 | 0.00 | 0.00 | 0.00 | 82 | 1007.5 |
| 20260902050606 | 60 | 90 | 0.0 | 0.0 | 0.00 | 0.00 | 0.00 | 82 | 1007.5 |
| 20260902050107 | 60 | 157 | 0.0 | 1.7 | 0.00 | 0.00 | 0.00 | 81 | 1007.5 |
| 20260902044606 | 60 | 202 | 0.0 | 0.9 | 0.00 | 0.00 | 0.00 | 80 | 1007.2 |
| 20260902043606 | 61 | 247 | 0.0 | 0.0 | 0.00 | 0.00 | 0.00 | 78 | 1007.5 |
| 20260902043106 | 61 | 247 | 0.0 | 0.0 | 0.00 | 0.00 | 0.00 | 78 | 1007.5 |
| 20260902042605 | 61 | 157 | 0.0 | 0.0 | 0.00 | 0.00 | 0.00 | 78 | 1007.2 |
| 20260902042105 | 62 | 157 | 0.0 | 0.0 | 0.00 | 0.00 | 0.00 | 78 | 1007.5 |
| 20260902040106 | 62 | 202 | 0.0 | 1.7 | 0.00 | 0.00 | 0.00 | 77 | 1007.1 |
| 20260902035605 | 62 | 200 | 0.9 | 2.6 | 0.00 | 0.00 | 0.00 | 77 | 1007.1 |
| 20260902035107 | 62 | 184 | 1.7 | 4.3 | 0.00 | 0.00 | 0.00 | 76 | 1006.8 |
| 20260902034105 | 63 | 153 | 0.9 | 5.2 | 0.00 | 0.00 | 0.00 | 76 | 1006.9 |
| 20260902033607 | 63 | 181 | 0.0 | 2.6 | 0.00 | 0.00 | 0.00 | 76 | 1006.9 |
| 20260902033106 | 63 | 220 | 0.9 | 2.6 | 0.00 | 0.00 | 0.00 | 76 | 1006.8 |
| 20260902032605 | 63 | 181 | 1.7 | 5.2 | 0.00 | 0.00 | 0.00 | 75 | 1006.8 |
| 20260902032106 | 63 | 235 | 0.9 | 5.2 | 0.00 | 0.00 | 0.00 | 75 | 1006.8 |
| 20260902031605 | 63 | 210 | 1.7 | 4.3 | 0.00 | 0.00 | 0.00 | 74 | 1006.5 |
| 20260902031105 | 63 | 157 | 0.9 | 4.3 | 0.00 | 0.00 | 0.00 | 73 | 1006.7 |
| 20260902030605 | 63 | 228 | 1.7 | 6.1 | 0.00 | 0.00 | 0.00 | 72 | 1006.7 |
| 20260902030106 | 63 | 199 | 0.9 | 2.6 | 0.00 | 0.00 | 0.00 | 71 | 1006.4 |
| 20260902025606 | 64 | 224 | 0.9 | 4.3 | 0.00 | 0.00 | 0.00 | 70 | 1006.4 |
| 20260902024606 | 64 | 135 | 0.0 | 6.1 | 0.00 | 0.00 | 0.00 | 68 | 1006.4 |
| 20260902024105 | 65 | 167 | 1.7 | 5.2 | 0.00 | 0.00 | 0.00 | 66 | 1006.4 |
| 20260902023605 | 65 | 344 | 0.9 | 1.7 | 0.00 | 0.00 | 0.00 | 65 | 1006.4 |
| 20260902023105 | 65 | 202 | 0.9 | 1.7 | 0.00 | 0.00 | 0.00 | 65 | 1006.1 |
| 20260902022607 | 66 | 202 | 0.9 | 7.0 | 0.00 | 0.00 | 0.00 | 63 | 1006.2 |
| 20260902022106 | 67 | 286 | 1.7 | 5.2 | 0.00 | 0.00 | 0.00 | 61 | 1006.1 |
| 20260902021605 | 67 | 226 | 2.6 | 5.2 | 0.00 | 0.00 | 0.00 | 58 | 1006.4 |
| 20260902020105 | 69 | 239 | 0.9 | 5.2 | 0.00 | 0.00 | 0.00 | 53 | 1006.1 |
| 20260902015606 | 69 | 209 | 1.7 | 6.1 | 0.00 | 0.00 | 0.00 | 53 | 1006.1 |
| 20260902015105 | 70 | 234 | 4.3 | 7.0 | 0.00 | 0.00 | 0.00 | 52 | 1006.1 |
| 20260902014607 | 70 | 227 | 1.7 | 4.3 | 0.00 | 0.00 | 0.00 | 52 | 1006.0 |